| time (UTC) | temp C | wind direction | speed KPH | gust KPH | rain 1hr cm | rain 24hr cm | rain mn cm | humidity % | barometer mb |
| 20260505181418 | 26 | 150 | 8.0 | 8.0 | 0.00 | 0.00 | 0.00 | 81 | 1004.7 |
| 20260505180914 | 26 | 156 | 12.9 | 14.5 | 0.00 | 0.00 | 0.00 | 80 | 1004.3 |
| 20260505180411 | 27 | 152 | 17.7 | 19.3 | 0.00 | 0.00 | 0.00 | 80 | 1004.7 |
| 20260505175908 | 26 | 204 | 17.7 | 19.3 | 0.00 | 0.00 | 0.00 | 80 | 1004.7 |
| 20260505175404 | 26 | 156 | 17.7 | 19.3 | 0.00 | 0.00 | 0.00 | 81 | 1004.7 |
| 20260505174900 | 26 | 184 | 8.0 | 8.0 | 0.00 | 0.00 | 0.00 | 81 | 1005.0 |
| 20260505174358 | 26 | 181 | 12.9 | 14.5 | 0.00 | 0.00 | 0.00 | 80 | 1004.7 |
| 20260505173854 | 26 | 195 | 8.0 | 8.0 | 0.00 | 0.00 | 0.00 | 80 | 1005.0 |
| 20260505173350 | 26 | 168 | 11.3 | 11.3 | 0.00 | 0.00 | 0.00 | 80 | 1004.7 |
| 20260505172848 | 26 | 171 | 17.7 | 20.9 | 0.00 | 0.00 | 0.00 | 80 | 1005.0 |
| 20260505172345 | 26 | 186 | 12.9 | 12.9 | 0.00 | 0.00 | 0.00 | 81 | 1005.0 |
| 20260505171845 | 26 | 180 | 19.3 | 22.5 | 0.00 | 0.00 | 0.00 | 81 | 1005.0 |
| 20260505171342 | 26 | 188 | 14.5 | 14.5 | 0.00 | 0.00 | 0.00 | 81 | 1004.7 |
| 20260505170838 | 26 | 174 | 14.5 | 14.5 | 0.00 | 0.00 | 0.00 | 81 | 1005.0 |
| 20260505170335 | 26 | 168 | 9.7 | 9.7 | 0.00 | 0.00 | 0.00 | 81 | 1005.0 |
| 20260505165831 | 26 | 174 | 6.4 | 6.4 | 0.00 | 0.00 | 0.00 | 82 | 1005.0 |
| 20260505165326 | 26 | 180 | 11.3 | 12.9 | 0.00 | 0.00 | 0.00 | 82 | 1005.0 |
| 20260505164822 | 26 | 186 | 11.3 | 11.3 | 0.00 | 0.00 | 0.00 | 82 | 1005.0 |
| 20260505164319 | 26 | 234 | 8.0 | 9.7 | 0.00 | 0.00 | 0.00 | 82 | 1005.3 |
| 20260505163818 | 25 | 138 | 17.7 | 17.7 | 0.00 | 0.00 | 0.00 | 82 | 1005.3 |
| 20260505163316 | 25 | 163 | 4.8 | 4.8 | 0.00 | 0.00 | 0.00 | 82 | 1005.0 |
| 20260505162814 | 25 | 300 | 9.7 | 11.3 | 0.00 | 0.00 | 0.00 | 83 | 1005.0 |
| 20260505162310 | 25 | 222 | 11.3 | 11.3 | 0.00 | 0.00 | 0.00 | 85 | 1005.0 |
| 20260505161807 | 25 | 174 | 14.5 | 16.1 | 0.00 | 0.00 | 0.00 | 85 | 1005.0 |
| 20260505161304 | 25 | 162 | 9.7 | 9.7 | 0.00 | 0.00 | 0.00 | 86 | 1005.0 |
| 20260505160802 | 25 | 180 | 9.7 | 9.7 | 0.00 | 0.00 | 0.00 | 87 | 1005.3 |
| 20260505160259 | 25 | 150 | 11.3 | 11.3 | 0.00 | 0.00 | 0.00 | 87 | 1005.0 |
| 20260505153238 | 23 | 154 | 9.7 | 9.7 | 0.00 | 0.00 | 0.00 | 90 | 1005.0 |
| 20260505152735 | 23 | 167 | 11.3 | 11.3 | 0.00 | 0.00 | 0.00 | 90 | 1005.0 |
| 20260505152231 | 23 | 156 | 9.7 | 9.7 | 0.00 | 0.00 | 0.00 | 90 | 1005.0 |
| 20260505151726 | 23 | 174 | 11.3 | 12.9 | 0.00 | 0.00 | 0.00 | 90 | 1005.0 |
| 20260505151224 | 23 | 163 | 9.7 | 11.3 | 0.00 | 0.00 | 0.00 | 90 | 1005.0 |
| 20260505150720 | 23 | 153 | 12.9 | 14.5 | 0.00 | 0.00 | 0.00 | 91 | 1005.0 |
| 20260505150217 | 23 | 167 | 16.1 | 16.1 | 0.00 | 0.00 | 0.00 | 91 | 1005.0 |
| 20260505140645 | 23 | 152 | 12.9 | 14.5 | 0.00 | 0.00 | 0.00 | 91 | 1005.0 |
| 20260505140142 | 22 | 149 | 12.9 | 14.5 | 0.00 | 0.00 | 0.00 | 91 | 1004.7 |
| 20260505130106 | 22 | 162 | 6.4 | 6.4 | 0.00 | 0.00 | 0.00 | 92 | 1004.3 |
| 20260505124555 | 22 | 188 | 9.7 | 9.7 | 0.00 | 0.00 | 0.00 | 92 | 1004.3 |
| 20260505124051 | 22 | 198 | 24.1 | 27.4 | 0.00 | 0.00 | 0.00 | 92 | 1004.3 |
| 20260505123548 | 22 | 133 | 14.5 | 14.5 | 0.00 | 0.00 | 0.00 | 92 | 1004.0 |
| 20260505123044 | 22 | 160 | 6.4 | 6.4 | 0.00 | 0.00 | 0.00 | 92 | 1004.0 |
| 20260505122541 | 22 | 141 | 9.7 | 9.7 | 0.00 | 0.00 | 0.00 | 92 | 1004.0 |
| 20260505122038 | 21 | 150 | 17.7 | 17.7 | 0.00 | 0.00 | 0.00 | 92 | 1004.0 |
| 20260505121535 | 21 | 171 | 8.0 | 9.7 | 0.00 | 0.00 | 0.00 | 92 | 1004.0 |
| 20260505121032 | 21 | 164 | 9.7 | 9.7 | 0.00 | 0.00 | 0.00 | 92 | 1004.3 |
| 20260505120528 | 21 | 180 | 11.3 | 12.9 | 0.00 | 0.00 | 0.00 | 92 | 1004.0 |
| 20260505120023 | 21 | 158 | 9.7 | 9.7 | 0.00 | 0.00 | 0.00 | 92 | 1004.0 |
| 20260505115518 | 21 | 204 | 11.3 | 12.9 | 0.00 | 0.00 | 0.00 | 92 | 1003.6 |
| 20260505115016 | 21 | 180 | 11.3 | 12.9 | 0.00 | 0.00 | 0.00 | 92 | 1004.0 |
| 20260505114513 | 21 | 149 | 11.3 | 12.9 | 0.00 | 0.00 | 0.00 | 92 | 1004.0 |
| 20260505114009 | 21 | 144 | 8.0 | 9.7 | 0.00 | 0.00 | 0.00 | 92 | 1004.0 |
| 20260505113506 | 21 | 155 | 6.4 | 6.4 | 0.00 | 0.00 | 0.00 | 92 | 1004.3 |
| 20260505113002 | 21 | 164 | 14.5 | 14.5 | 0.00 | 0.00 | 0.00 | 92 | 1004.0 |
| 20260505112459 | 21 | 145 | 4.8 | 4.8 | 0.00 | 0.00 | 0.00 | 92 | 1004.0 |
| 20260505111956 | 21 | 155 | 11.3 | 11.3 | 0.00 | 0.00 | 0.00 | 92 | 1003.6 |
| 20260505111450 | 21 | 174 | 16.1 | 16.1 | 0.00 | 0.00 | 0.00 | 92 | 1004.0 |
| 20260505110946 | 21 | 180 | 16.1 | 16.1 | 0.00 | 0.00 | 0.00 | 92 | 1004.0 |
| 20260505110443 | 21 | 169 | 12.9 | 14.5 | 0.00 | 0.00 | 0.00 | 92 | 1003.6 |
| 20260505101914 | 21 | 186 | 8.0 | 9.7 | 0.00 | 0.00 | 0.00 | 91 | 1004.0 |
| 20260505101409 | 21 | 168 | 14.5 | 14.5 | 0.00 | 0.00 | 0.00 | 91 | 1004.0 |
| 20260505100905 | 21 | 204 | 17.7 | 17.7 | 0.00 | 0.00 | 0.00 | 91 | 1004.0 |
| 20260505100402 | 21 | 149 | 17.7 | 17.7 | 0.00 | 0.00 | 0.00 | 92 | 1003.6 |
| 20260505095857 | 21 | 160 | 8.0 | 8.0 | 0.00 | 0.00 | 0.00 | 92 | 1004.3 |
| 20260505095355 | 21 | 174 | 11.3 | 12.9 | 0.00 | 0.00 | 0.00 | 91 | 1004.0 |
| 20260505094851 | 21 | 138 | 16.1 | 17.7 | 0.00 | 0.00 | 0.00 | 91 | 1004.0 |
| 20260505094348 | 21 | 153 | 8.0 | 9.7 | 0.00 | 0.00 | 0.00 | 91 | 1004.0 |
| 20260505093843 | 21 | 180 | 12.9 | 14.5 | 0.00 | 0.00 | 0.00 | 91 | 1004.0 |
| 20260505093341 | 21 | 146 | 20.9 | 25.7 | 0.00 | 0.00 | 0.00 | 91 | 1004.0 |
| 20260505092838 | 21 | 158 | 16.1 | 17.7 | 0.00 | 0.00 | 0.00 | 91 | 1004.0 |
| 20260505092337 | 21 | 152 | 12.9 | 14.5 | 0.00 | 0.00 | 0.00 | 91 | 1004.3 |
| 20260505091833 | 21 | 186 | 14.5 | 14.5 | 0.00 | 0.00 | 0.00 | 91 | 1004.3 |
| 20260505091331 | 21 | 171 | 24.1 | 27.4 | 0.00 | 0.00 | 0.00 | 91 | 1004.3 |
| 20260505090829 | 21 | 152 | 14.5 | 14.5 | 0.00 | 0.00 | 0.00 | 91 | 1004.0 |
| 20260505090327 | 21 | 163 | 12.9 | 14.5 | 0.00 | 0.00 | 0.00 | 91 | 1004.3 |
| 20260505085824 | 21 | 126 | 14.5 | 14.5 | 0.00 | 0.00 | 0.00 | 91 | 1004.3 |
| 20260505085322 | 21 | 156 | 25.7 | 29.0 | 0.00 | 0.00 | 0.00 | 91 | 1004.3 |
| 20260505084819 | 21 | 148 | 9.7 | 9.7 | 0.00 | 0.00 | 0.00 | 91 | 1004.3 |
| 20260505084318 | 21 | 150 | 16.1 | 16.1 | 0.00 | 0.00 | 0.00 | 91 | 1004.3 |
| 20260505083814 | 21 | 174 | 14.5 | 14.5 | 0.00 | 0.00 | 0.00 | 91 | 1004.7 |
| 20260505083312 | 21 | 145 | 4.8 | 4.8 | 0.00 | 0.00 | 0.00 | 91 | 1004.7 |
| 20260505082808 | 21 | 157 | 11.3 | 12.9 | 0.00 | 0.00 | 0.00 | 91 | 1005.0 |
| 20260505082305 | 21 | 168 | 17.7 | 17.7 | 0.00 | 0.00 | 0.00 | 91 | 1005.0 |
| 20260505081801 | 21 | 170 | 12.9 | 14.5 | 0.00 | 0.00 | 0.00 | 91 | 1005.0 |
| 20260505081258 | 21 | 146 | 11.3 | 12.9 | 0.00 | 0.00 | 0.00 | 91 | 1005.0 |
| 20260505080755 | 21 | 170 | 19.3 | 22.5 | 0.00 | 0.00 | 0.00 | 91 | 1005.0 |
| 20260505080250 | 21 | 163 | 8.0 | 8.0 | 0.00 | 0.00 | 0.00 | 91 | 1005.0 |
| 20260505075746 | 21 | 168 | 16.1 | 16.1 | 0.00 | 0.00 | 0.00 | 91 | 1005.0 |
| 20260505075244 | 21 | 150 | 20.9 | 22.5 | 0.00 | 0.00 | 0.00 | 91 | 1005.0 |
| 20260505074741 | 21 | 155 | 11.3 | 12.9 | 0.00 | 0.00 | 0.00 | 91 | 1005.0 |
| 20260505074238 | 21 | 146 | 8.0 | 8.0 | 0.00 | 0.00 | 0.00 | 91 | 1005.0 |
| 20260505073735 | 21 | 156 | 8.0 | 9.7 | 0.00 | 0.00 | 0.00 | 91 | 1005.0 |
| 20260505073233 | 21 | 198 | 16.1 | 17.7 | 0.00 | 0.00 | 0.00 | 91 | 1005.3 |
| 20260505072730 | 21 | 186 | 19.3 | 22.5 | 0.00 | 0.00 | 0.00 | 91 | 1005.0 |
| 20260505072226 | 21 | 137 | 9.7 | 9.7 | 0.00 | 0.00 | 0.00 | 91 | 1005.3 |
| 20260505071721 | 21 | 161 | 11.3 | 11.3 | 0.00 | 0.00 | 0.00 | 90 | 1005.3 |
| 20260505071219 | 21 | 145 | 12.9 | 14.5 | 0.00 | 0.00 | 0.00 | 90 | 1005.3 |
| 20260505070716 | 21 | 192 | 14.5 | 14.5 | 0.00 | 0.00 | 0.00 | 90 | 1005.3 |
| 20260505070212 | 21 | 174 | 14.5 | 14.5 | 0.00 | 0.00 | 0.00 | 90 | 1005.7 |
| 20260505065708 | 21 | 150 | 8.0 | 8.0 | 0.00 | 0.00 | 0.00 | 90 | 1005.7 |
| 20260505065205 | 21 | 186 | 11.3 | 11.3 | 0.00 | 0.00 | 0.00 | 90 | 1005.7 |
| 20260505064702 | 21 | 168 | 8.0 | 8.0 | 0.00 | 0.00 | 0.00 | 90 | 1005.7 |
| 20260505064200 | 21 | 139 | 17.7 | 17.7 | 0.00 | 0.00 | 0.00 | 89 | 1005.7 |
| 20260505063657 | 21 | 151 | 14.5 | 14.5 | 0.00 | 0.00 | 0.00 | 89 | 1006.0 |
| 20260505063153 | 21 | 166 | 12.9 | 14.5 | 0.00 | 0.00 | 0.00 | 89 | 1005.7 |
| 20260505062649 | 21 | 145 | 9.7 | 9.7 | 0.00 | 0.00 | 0.00 | 89 | 1005.7 |
| 20260505062147 | 21 | 126 | 12.9 | 14.5 | 0.00 | 0.00 | 0.00 | 89 | 1005.7 |
| 20260505061644 | 21 | 153 | 14.5 | 14.5 | 0.00 | 0.00 | 0.00 | 89 | 1005.7 |
| 20260505061142 | 21 | 150 | 16.1 | 17.7 | 0.00 | 0.00 | 0.00 | 89 | 1005.3 |
| 20260505060639 | 21 | 143 | 12.9 | 12.9 | 0.00 | 0.00 | 0.00 | 89 | 1005.7 |
| 20260505060136 | 21 | 140 | 16.1 | 17.7 | 0.00 | 0.00 | 0.00 | 89 | 1005.3 |
| 20260505055631 | 21 | 156 | 17.7 | 19.3 | 0.00 | 0.00 | 0.00 | 89 | 1005.7 |
| 20260505055128 | 21 | 157 | 11.3 | 12.9 | 0.00 | 0.00 | 0.00 | 89 | 1005.7 |
| 20260505054626 | 21 | 174 | 17.7 | 19.3 | 0.00 | 0.00 | 0.00 | 89 | 1005.3 |
| 20260505054124 | 21 | 149 | 17.7 | 19.3 | 0.00 | 0.00 | 0.00 | 89 | 1005.3 |
| 20260505053621 | 21 | 149 | 14.5 | 14.5 | 0.00 | 0.00 | 0.00 | 89 | 1005.7 |
| 20260505053117 | 21 | 132 | 11.3 | 11.3 | 0.00 | 0.00 | 0.00 | 88 | 1005.7 |
| 20260505052614 | 21 | 144 | 12.9 | 14.5 | 0.00 | 0.00 | 0.00 | 88 | 1005.7 |
| 20260505052112 | 21 | 146 | 14.5 | 16.1 | 0.00 | 0.00 | 0.00 | 88 | 1006.0 |
| 20260505051608 | 21 | 120 | 14.5 | 14.5 | 0.00 | 0.00 | 0.00 | 88 | 1005.7 |
| 20260505051107 | 21 | 138 | 9.7 | 11.3 | 0.00 | 0.00 | 0.00 | 87 | 1005.7 |
| 20260505050604 | 21 | 163 | 17.7 | 19.3 | 0.00 | 0.00 | 0.00 | 87 | 1005.7 |
| 20260505041532 | 21 | 149 | 24.1 | 27.4 | 0.00 | 0.00 | 0.00 | 85 | 1006.3 |
| 20260505041029 | 21 | 143 | 8.0 | 9.7 | 0.00 | 0.00 | 0.00 | 85 | 1006.3 |
| 20260505040526 | 22 | 145 | 20.9 | 22.5 | 0.00 | 0.00 | 0.00 | 85 | 1006.0 |
| 20260505040024 | 22 | 162 | 19.3 | 20.9 | 0.00 | 0.00 | 0.00 | 84 | 1006.0 |
| 20260505035519 | 22 | 149 | 19.3 | 19.3 | 0.00 | 0.00 | 0.00 | 85 | 1006.0 |
| 20260505035016 | 22 | 180 | 12.9 | 14.5 | 0.00 | 0.00 | 0.00 | 84 | 1006.3 |
| 20260505034513 | 22 | 144 | 12.9 | 14.5 | 0.00 | 0.00 | 0.00 | 84 | 1006.0 |
| 20260505034010 | 22 | 145 | 16.1 | 17.7 | 0.00 | 0.00 | 0.00 | 84 | 1006.0 |
| 20260505033507 | 22 | 143 | 22.5 | 29.0 | 0.00 | 0.00 | 0.00 | 83 | 1006.0 |
| 20260505033005 | 22 | 142 | 11.3 | 12.9 | 0.00 | 0.00 | 0.00 | 83 | 1006.0 |
| 20260505032502 | 22 | 160 | 27.4 | 29.0 | 0.00 | 0.00 | 0.00 | 83 | 1006.0 |
| 20260505031958 | 22 | 158 | 14.5 | 14.5 | 0.00 | 0.00 | 0.00 | 83 | 1006.0 |
| 20260505031455 | 22 | 124 | 12.9 | 14.5 | 0.00 | 0.00 | 0.00 | 83 | 1005.7 |
| 20260505030952 | 22 | 137 | 22.5 | 25.7 | 0.00 | 0.00 | 0.00 | 83 | 1005.7 |
| 20260505030448 | 22 | 168 | 24.1 | 30.6 | 0.00 | 0.00 | 0.00 | 83 | 1006.0 |
| 20260505025943 | 22 | 138 | 12.9 | 14.5 | 0.00 | 0.00 | 0.00 | 82 | 1006.0 |
| 20260505025441 | 22 | 167 | 17.7 | 17.7 | 0.00 | 0.00 | 0.00 | 82 | 1006.0 |
| 20260505024940 | 22 | 148 | 20.9 | 22.5 | 0.00 | 0.00 | 0.00 | 82 | 1006.0 |
| 20260505024437 | 22 | 128 | 19.3 | 22.5 | 0.00 | 0.00 | 0.00 | 82 | 1006.0 |
| 20260505023934 | 23 | 151 | 20.9 | 22.5 | 0.00 | 0.00 | 0.00 | 82 | 1005.7 |
| 20260505023431 | 23 | 148 | 24.1 | 30.6 | 0.00 | 0.00 | 0.00 | 81 | 1005.7 |
| 20260505022928 | 23 | 125 | 17.7 | 17.7 | 0.00 | 0.00 | 0.00 | 81 | 1005.7 |
| 20260505022426 | 23 | 131 | 12.9 | 14.5 | 0.00 | 0.00 | 0.00 | 81 | 1006.0 |
| 20260505021922 | 23 | 138 | 11.3 | 11.3 | 0.00 | 0.00 | 0.00 | 81 | 1005.7 |
| 20260505021419 | 23 | 126 | 8.0 | 9.7 | 0.00 | 0.00 | 0.00 | 81 | 1005.7 |
| 20260505020915 | 23 | 162 | 16.1 | 16.1 | 0.00 | 0.00 | 0.00 | 81 | 1005.7 |
| 20260505020410 | 23 | 132 | 12.9 | 14.5 | 0.00 | 0.00 | 0.00 | 81 | 1005.7 |
| 20260505015908 | 23 | 132 | 14.5 | 14.5 | 0.00 | 0.00 | 0.00 | 81 | 1005.7 |
| 20260505015405 | 23 | 127 | 8.0 | 9.7 | 0.00 | 0.00 | 0.00 | 81 | 1005.7 |
| 20260505014902 | 23 | 112 | 12.9 | 14.5 | 0.00 | 0.00 | 0.00 | 80 | 1005.7 |
| 20260505014359 | 23 | 145 | 8.0 | 9.7 | 0.00 | 0.00 | 0.00 | 80 | 1005.7 |
| 20260505013855 | 23 | 148 | 14.5 | 14.5 | 0.00 | 0.00 | 0.00 | 80 | 1005.3 |
| 20260505013352 | 23 | 131 | 9.7 | 11.3 | 0.00 | 0.00 | 0.00 | 80 | 1005.3 |
| 20260505012851 | 23 | 120 | 12.9 | 14.5 | 0.00 | 0.00 | 0.00 | 80 | 1005.3 |
| 20260505012349 | 23 | 128 | 11.3 | 11.3 | 0.00 | 0.00 | 0.00 | 80 | 1005.3 |
| 20260505011844 | 23 | 123 | 8.0 | 8.0 | 0.00 | 0.00 | 0.00 | 79 | 1005.7 |
| 20260505011341 | 23 | 126 | 8.0 | 8.0 | 0.00 | 0.00 | 0.00 | 79 | 1005.3 |
| 20260505010837 | 23 | 115 | 8.0 | 9.7 | 0.00 | 0.00 | 0.00 | 78 | 1005.7 |
| 20260505010333 | 23 | 126 | 9.7 | 9.7 | 0.00 | 0.00 | 0.00 | 78 | 1005.3 |
| 20260505005830 | 24 | 138 | 16.1 | 16.1 | 0.00 | 0.00 | 0.00 | 77 | 1005.3 |
| 20260505005327 | 24 | 134 | 8.0 | 9.7 | 0.00 | 0.00 | 0.00 | 77 | 1005.3 |
| 20260505004824 | 24 | 124 | 12.9 | 14.5 | 0.00 | 0.00 | 0.00 | 76 | 1005.0 |
| 20260505004320 | 24 | 121 | 20.9 | 22.5 | 0.00 | 0.00 | 0.00 | 76 | 1005.0 |
| 20260505003818 | 25 | 138 | 14.5 | 16.1 | 0.00 | 0.00 | 0.00 | 75 | 1005.3 |
| 20260505003315 | 25 | 151 | 11.3 | 11.3 | 0.00 | 0.00 | 0.00 | 75 | 1005.0 |
| 20260505002811 | 25 | 150 | 20.9 | 25.7 | 0.00 | 0.00 | 0.00 | 74 | 1005.3 |
| 20260505002308 | 25 | 138 | 17.7 | 19.3 | 0.00 | 0.00 | 0.00 | 74 | 1005.3 |
| 20260505001806 | 25 | 126 | 14.5 | 14.5 | 0.00 | 0.00 | 0.00 | 74 | 1005.7 |
| 20260505001303 | 25 | 138 | 11.3 | 11.3 | 0.00 | 0.00 | 0.00 | 75 | 1005.7 |
| 20260505000800 | 25 | 132 | 9.7 | 11.3 | 0.00 | 0.00 | 0.00 | 74 | 1005.7 |
| 20260505000258 | 25 | 138 | 14.5 | 14.5 | 0.00 | 0.00 | 0.00 | 74 | 1005.7 |
| 20260504235754 | 25 | 144 | 9.7 | 9.7 | 0.00 | 0.00 | 0.00 | 73 | 1005.7 |
| 20260504235250 | 25 | 182 | 19.3 | 19.3 | 0.00 | 0.00 | 0.00 | 72 | 1005.7 |
| 20260504234748 | 25 | 128 | 25.7 | 27.4 | 0.00 | 0.00 | 0.00 | 72 | 1005.7 |
| 20260504234245 | 25 | 144 | 17.7 | 17.7 | 0.00 | 0.00 | 0.00 | 72 | 1005.7 |
| 20260504233741 | 25 | 126 | 17.7 | 19.3 | 0.00 | 0.00 | 0.00 | 71 | 1005.7 |
| 20260504233237 | 25 | 138 | 11.3 | 12.9 | 0.00 | 0.00 | 0.00 | 71 | 1005.7 |
| 20260504232734 | 25 | 144 | 16.1 | 16.1 | 0.00 | 0.00 | 0.00 | 71 | 1005.7 |
| 20260504232231 | 25 | 153 | 24.1 | 25.7 | 0.00 | 0.00 | 0.00 | 70 | 1005.7 |
| 20260504231728 | 26 | 138 | 19.3 | 22.5 | 0.00 | 0.00 | 0.00 | 70 | 1005.7 |
| 20260504231224 | 26 | 156 | 11.3 | 12.9 | 0.00 | 0.00 | 0.00 | 69 | 1006.0 |
| 20260504230720 | 26 | 234 | 12.9 | 12.9 | 0.00 | 0.00 | 0.00 | 69 | 1006.0 |
| 20260504230220 | 26 | 156 | 16.1 | 19.3 | 0.00 | 0.00 | 0.00 | 69 | 1005.7 |
| 20260504225718 | 26 | 126 | 12.9 | 12.9 | 0.00 | 0.00 | 0.00 | 68 | 1006.0 |
| 20260504225214 | 26 | 168 | 14.5 | 14.5 | 0.00 | 0.00 | 0.00 | 66 | 1005.7 |
| 20260504224711 | 26 | 138 | 16.1 | 16.1 | 0.00 | 0.00 | 0.00 | 66 | 1005.7 |
| 20260504224209 | 26 | 114 | 22.5 | 25.7 | 0.00 | 0.00 | 0.00 | 64 | 1006.0 |
| 20260504223704 | 27 | 144 | 12.9 | 14.5 | 0.00 | 0.00 | 0.00 | 65 | 1006.3 |
| 20260504223200 | 26 | 168 | 11.3 | 12.9 | 0.00 | 0.00 | 0.00 | 63 | 1006.3 |
| 20260504222658 | 26 | 109 | 14.5 | 16.1 | 0.00 | 0.00 | 0.00 | 65 | 1006.0 |
| 20260504222154 | 26 | 145 | 9.7 | 11.3 | 0.00 | 0.00 | 0.00 | 64 | 1005.7 |
| 20260504221651 | 26 | 150 | 14.5 | 14.5 | 0.00 | 0.00 | 0.00 | 64 | 1006.0 |
| 20260504221149 | 26 | 122 | 20.9 | 24.1 | 0.00 | 0.00 | 0.00 | 63 | 1006.3 |
| 20260504220645 | 26 | 138 | 11.3 | 12.9 | 0.00 | 0.00 | 0.00 | 64 | 1006.3 |
| 20260504220143 | 26 | 166 | 20.9 | 24.1 | 0.00 | 0.00 | 0.00 | 63 | 1006.3 |
| 20260504215638 | 26 | 144 | 20.9 | 22.5 | 0.00 | 0.00 | 0.00 | 64 | 1006.0 |
| 20260504215136 | 26 | 128 | 11.3 | 11.3 | 0.00 | 0.00 | 0.00 | 66 | 1006.3 |
| 20260504214632 | 26 | 146 | 14.5 | 14.5 | 0.00 | 0.00 | 0.00 | 65 | 1006.3 |
| 20260504214128 | 26 | 126 | 20.9 | 22.5 | 0.00 | 0.00 | 0.00 | 65 | 1006.3 |
| 20260504213625 | 27 | 127 | 24.1 | 25.7 | 0.00 | 0.00 | 0.00 | 63 | 1006.7 |
| 20260504213122 | 27 | 144 | 17.7 | 19.3 | 0.00 | 0.00 | 0.00 | 62 | 1006.7 |
| 20260504212618 | 27 | 132 | 14.5 | 14.5 | 0.00 | 0.00 | 0.00 | 63 | 1006.7 |
| 20260504212115 | 26 | 132 | 17.7 | 19.3 | 0.00 | 0.00 | 0.00 | 62 | 1006.7 |
| 20260504211612 | 26 | 147 | 17.7 | 17.7 | 0.00 | 0.00 | 0.00 | 63 | 1006.7 |
| 20260504211109 | 27 | 184 | 22.5 | 25.7 | 0.00 | 0.00 | 0.00 | 61 | 1007.0 |
| 20260504210607 | 26 | 234 | 17.7 | 19.3 | 0.00 | 0.00 | 0.00 | 63 | 1007.0 |
| 20260504205601 | 26 | 150 | 11.3 | 12.9 | 0.00 | 0.00 | 0.00 | 65 | 1007.4 |
| 20260504205058 | 26 | 127 | 17.7 | 19.3 | 0.00 | 0.00 | 0.00 | 63 | 1007.4 |
| 20260504204556 | 26 | 150 | 12.9 | 12.9 | 0.00 | 0.00 | 0.00 | 64 | 1007.7 |
| 20260504204055 | 26 | 144 | 6.4 | 6.4 | 0.00 | 0.00 | 0.00 | 65 | 1007.7 |
| 20260504203553 | 26 | 162 | 19.3 | 19.3 | 0.00 | 0.00 | 0.00 | 63 | 1008.0 |
| 20260504203050 | 26 | 138 | 19.3 | 19.3 | 0.00 | 0.00 | 0.00 | 64 | 1008.0 |
| 20260504202545 | 26 | 147 | 11.3 | 11.3 | 0.00 | 0.00 | 0.00 | 63 | 1008.0 |
| 20260504202042 | 26 | 147 | 6.4 | 6.4 | 0.00 | 0.00 | 0.00 | 64 | 1008.0 |
| 20260504201539 | 26 | 162 | 11.3 | 12.9 | 0.00 | 0.00 | 0.00 | 65 | 1008.4 |
| 20260504201037 | 26 | 134 | 22.5 | 24.1 | 0.00 | 0.00 | 0.00 | 64 | 1008.4 |
| 20260504200533 | 26 | 138 | 17.7 | 17.7 | 0.00 | 0.00 | 0.00 | 63 | 1008.4 |
| 20260504200030 | 27 | 123 | 16.1 | 16.1 | 0.00 | 0.00 | 0.00 | 62 | 1008.0 |
| 20260504195526 | 26 | 184 | 14.5 | 14.5 | 0.00 | 0.00 | 0.00 | 61 | 1008.4 |
| 20260504195023 | 26 | 180 | 11.3 | 11.3 | 0.00 | 0.00 | 0.00 | 64 | 1008.4 |
| 20260504194519 | 26 | 128 | 8.0 | 9.7 | 0.00 | 0.00 | 0.00 | 64 | 1008.7 |
| 20260504194015 | 26 | 144 | 20.9 | 22.5 | 0.00 | 0.00 | 0.00 | 63 | 1008.7 |
| 20260504193512 | 26 | 150 | 11.3 | 12.9 | 0.00 | 0.00 | 0.00 | 62 | 1009.2 |
| 20260504193011 | 26 | 138 | 14.5 | 14.5 | 0.00 | 0.00 | 0.00 | 60 | 1009.2 |
| 20260504192508 | 26 | 158 | 16.1 | 17.7 | 0.00 | 0.00 | 0.00 | 63 | 1009.2 |
| 20260504192007 | 26 | 120 | 11.3 | 11.3 | 0.00 | 0.00 | 0.00 | 64 | 1009.2 |
| 20260504191504 | 25 | 152 | 17.7 | 17.7 | 0.00 | 0.00 | 0.00 | 63 | 1009.2 |
| 20260504190959 | 25 | 167 | 8.0 | 9.7 | 0.00 | 0.00 | 0.00 | 65 | 1009.2 |
| 20260504190455 | 25 | 168 | 12.9 | 14.5 | 0.00 | 0.00 | 0.00 | 65 | 1009.5 |
| 20260504185952 | 25 | 126 | 27.4 | 30.6 | 0.00 | 0.00 | 0.00 | 65 | 1009.5 |
| 20260504185449 | 26 | 204 | 12.9 | 14.5 | 0.00 | 0.00 | 0.00 | 64 | 1009.5 |
| 20260504184945 | 25 | 172 | 16.1 | 17.7 | 0.00 | 0.00 | 0.00 | 63 | 1009.5 |
| 20260504184441 | 25 | 150 | 14.5 | 14.5 | 0.00 | 0.00 | 0.00 | 65 | 1009.5 |
| 20260504183937 | 26 | 150 | 9.7 | 9.7 | 0.00 | 0.00 | 0.00 | 64 | 1009.8 |
| 20260504183434 | 25 | 152 | 9.7 | 11.3 | 0.00 | 0.00 | 0.00 | 66 | 1009.8 |
| 20260504182932 | 25 | 145 | 9.7 | 9.7 | 0.00 | 0.00 | 0.00 | 65 | 1009.8 |
| 20260504182429 | 25 | 138 | 20.9 | 22.5 | 0.00 | 0.00 | 0.00 | 66 | 1010.2 |
| 20260504181926 | 25 | 150 | 12.9 | 14.5 | 0.00 | 0.00 | 0.00 | 64 | 1009.8 |